Time,TemperatureF,DewpointF,PressureIn,WindDirection,WindDirectionDegrees,WindSpeedMPH,WindSpeedGustMPH,Humidity,HourlyPrecipIn,Conditions,Clouds,dailyrainin,SoftwareType,DateUTC
2013-02-03 00:03:00,37.0,36.0,30.15,SSW,197,0.0,0.0,95,0.00,,,0.00,,2013-02-03 05:03:00,
2013-02-03 00:12:00,37.0,36.0,30.15,SSW,197,0.0,0.0,95,0.00,,,0.00,,2013-02-03 05:12:00,
2013-02-03 00:22:00,36.0,35.0,30.14,SSW,197,0.0,0.0,96,0.00,,,0.00,,2013-02-03 05:22:00,
2013-02-03 00:32:00,36.0,35.0,30.14,SSW,197,0.0,0.0,98,0.00,,,0.00,,2013-02-03 05:32:00,
2013-02-03 00:42:00,36.0,35.0,30.14,SSW,197,0.0,0.0,98,0.00,,,0.00,,2013-02-03 05:42:00,
2013-02-03 00:52:00,35.0,35.0,30.14,SSW,197,0.0,0.0,99,0.00,,,0.00,,2013-02-03 05:52:00,
2013-02-03 01:02:00,35.0,35.0,30.13,SSW,197,0.0,0.0,99,0.00,,,0.00,,2013-02-03 06:02:00,
2013-02-03 01:11:00,35.0,35.0,30.13,SSW,197,0.0,0.0,99,0.00,,,0.00,,2013-02-03 06:11:00,
2013-02-03 01:21:00,35.0,34.0,30.13,WSW,248,0.0,0.0,98,0.00,,,0.00,,2013-02-03 06:21:00,
2013-02-03 01:32:00,35.0,34.0,30.13,SE,132,0.0,0.0,98,0.00,,,0.00,,2013-02-03 06:32:00,
2013-02-03 01:42:00,35.0,34.0,30.13,SE,132,0.0,0.0,98,0.00,,,0.00,,2013-02-03 06:42:00,
2013-02-03 01:52:00,34.0,34.0,30.12,WNW,283,0.0,3.0,99,0.00,,,0.00,,2013-02-03 06:52:00,
2013-02-03 02:01:00,34.0,34.0,30.12,WNW,283,0.0,0.0,98,0.00,,,0.00,,2013-02-03 07:01:00,
2013-02-03 02:11:00,34.0,34.0,30.12,WNW,283,0.0,0.0,98,0.00,,,0.00,,2013-02-03 07:11:00,
2013-02-03 02:21:00,33.0,33.0,30.11,West,263,0.0,0.0,99,0.00,,,0.00,,2013-02-03 07:21:00,
2013-02-03 02:31:00,33.0,33.0,30.10,SW,214,0.0,0.0,99,0.00,,,0.00,,2013-02-03 07:31:00,
2013-02-03 02:42:00,33.0,33.0,30.10,SW,214,0.0,0.0,99,0.00,,,0.00,,2013-02-03 07:42:00,
2013-02-03 02:52:00,32.0,32.0,30.10,SW,214,0.0,0.0,98,0.00,,,0.00,,2013-02-03 07:52:00,
2013-02-03 03:01:00,31.0,31.0,30.10,SW,214,0.0,0.0,99,0.00,,,0.00,,2013-02-03 08:01:00,
2013-02-03 03:11:00,31.0,31.0,30.10,SW,214,0.0,0.0,99,0.00,,,0.00,,2013-02-03 08:11:00,
2013-02-03 03:22:00,30.0,30.0,30.09,SW,214,0.0,0.0,100,0.00,,,0.00,,2013-02-03 08:22:00,
2013-02-03 03:32:00,30.0,30.0,30.10,SW,214,0.0,0.0,100,0.00,,,0.00,,2013-02-03 08:32:00,
2013-02-03 03:41:00,30.0,30.0,30.10,SW,214,0.0,0.0,100,0.00,,,0.00,,2013-02-03 08:41:00,
2013-02-03 03:52:00,30.0,30.0,30.09,SW,214,0.0,0.0,100,0.00,,,0.00,,2013-02-03 08:52:00,
2013-02-03 04:02:00,30.0,30.0,30.09,SW,214,0.0,0.0,100,0.00,,,0.00,,2013-02-03 09:02:00,
2013-02-03 04:11:00,30.0,30.0,30.09,SW,214,0.0,0.0,100,0.00,,,0.00,,2013-02-03 09:11:00,
2013-02-03 04:21:00,30.0,30.0,30.09,WNW,285,0.0,0.0,100,0.00,,,0.00,,2013-02-03 09:21:00,
2013-02-03 04:31:00,33.0,32.0,30.08,NW,318,3.0,7.0,96,0.00,,,0.00,,2013-02-03 09:31:00,
2013-02-03 04:42:00,33.0,32.0,30.08,NW,318,3.0,7.0,96,0.00,,,0.00,,2013-02-03 09:42:00,
2013-02-03 04:52:00,37.0,32.0,30.08,ENE,69,0.0,2.0,81,0.00,,,0.00,,2013-02-03 09:52:00,
2013-02-03 05:01:00,37.0,31.0,30.08,North,7,1.0,2.0,80,0.00,,,0.00,,2013-02-03 10:01:00,
2013-02-03 05:11:00,38.0,29.0,30.07,South,179,7.0,21.0,71,0.00,,,0.00,,2013-02-03 10:11:00,
2013-02-03 05:21:00,38.0,29.0,30.07,South,179,7.0,21.0,71,0.00,,,0.00,,2013-02-03 10:21:00,
2013-02-03 05:31:00,38.0,29.0,30.08,WSW,250,4.0,9.0,71,0.00,,,0.00,,2013-02-03 10:31:00,
2013-02-03 05:42:00,38.0,29.0,30.08,WSW,250,4.0,9.0,71,0.00,,,0.00,,2013-02-03 10:42:00,
2013-02-03 05:52:00,37.0,29.0,30.07,SW,235,5.0,9.0,73,0.00,,,0.00,,2013-02-03 10:52:00,
2013-02-03 06:02:00,38.0,29.0,30.07,ESE,120,5.0,11.0,69,0.00,,,0.00,,2013-02-03 11:02:00,
2013-02-03 06:11:00,38.0,29.0,30.07,ESE,120,5.0,11.0,69,0.00,,,0.00,,2013-02-03 11:11:00,
2013-02-03 06:22:00,38.0,29.0,30.07,SW,217,6.0,9.0,70,0.00,,,0.00,,2013-02-03 11:22:00,
2013-02-03 06:32:00,38.0,29.0,30.07,South,177,4.0,6.0,71,0.00,,,0.00,,2013-02-03 11:32:00,
2013-02-03 06:42:00,38.0,29.0,30.07,South,177,4.0,6.0,71,0.00,,,0.00,,2013-02-03 11:42:00,
2013-02-03 06:52:00,38.0,29.0,30.07,SW,228,7.0,10.0,71,0.00,,,0.00,,2013-02-03 11:52:00,
2013-02-03 07:02:00,38.0,30.0,30.08,West,271,0.0,1.0,72,0.00,,,0.00,,2013-02-03 12:02:00,
2013-02-03 07:12:00,38.0,30.0,30.08,West,271,0.0,1.0,72,0.00,,,0.00,,2013-02-03 12:12:00,
2013-02-03 07:22:00,37.0,30.0,30.07,NNE,20,0.0,0.0,76,0.00,,,0.00,,2013-02-03 12:22:00,
2013-02-03 07:32:00,35.0,29.0,30.08,NE,48,0.0,0.0,79,0.00,,,0.00,,2013-02-03 12:32:00,
2013-02-03 07:42:00,35.0,29.0,30.08,NE,48,0.0,0.0,79,0.00,,,0.00,,2013-02-03 12:42:00,
2013-02-03 07:53:00,33.0,29.0,30.09,NNW,345,0.0,0.0,85,0.00,,,0.00,,2013-02-03 12:53:00,
2013-02-03 08:03:00,31.0,28.0,30.08,NNW,345,0.0,0.0,89,0.00,,,0.00,,2013-02-03 13:03:00,
2013-02-03 08:11:00,31.0,28.0,30.08,NNW,345,0.0,0.0,89,0.00,,,0.00,,2013-02-03 13:11:00,
2013-02-03 08:22:00,31.0,28.0,30.08,NNW,345,0.0,0.0,89,0.00,,,0.00,,2013-02-03 13:22:00,
2013-02-03 08:32:00,31.0,29.0,30.10,NNE,18,0.0,0.0,93,0.00,,,0.00,,2013-02-03 13:32:00,
2013-02-03 08:42:00,31.0,29.0,30.10,NNE,18,0.0,0.0,93,0.00,,,0.00,,2013-02-03 13:42:00,
2013-02-03 08:52:00,33.0,30.0,30.10,NNE,18,0.0,0.0,89,0.00,,,0.00,,2013-02-03 13:52:00,
2013-02-03 09:02:00,36.0,32.0,30.09,SSE,152,0.0,0.0,84,0.00,,,0.00,,2013-02-03 14:02:00,
2013-02-03 09:11:00,36.0,32.0,30.09,SSE,152,0.0,0.0,84,0.00,,,0.00,,2013-02-03 14:11:00,
2013-02-03 09:21:00,39.0,33.0,30.08,SE,138,0.0,0.0,80,0.00,,,0.00,,2013-02-03 14:21:00,
2013-02-03 09:32:00,40.0,32.0,30.09,SSE,162,2.0,3.0,74,0.00,,,0.00,,2013-02-03 14:32:00,
2013-02-03 09:42:00,40.0,32.0,30.09,SSE,162,2.0,3.0,74,0.00,,,0.00,,2013-02-03 14:42:00,
2013-02-03 09:52:00,43.0,34.0,30.08,WNW,287,1.0,2.0,71,0.00,,,0.00,,2013-02-03 14:52:00,
2013-02-03 10:03:00,45.0,34.0,30.08,WSW,240,3.0,5.0,66,0.00,,,0.00,,2013-02-03 15:03:00,
2013-02-03 10:11:00,47.0,36.0,30.07,NW,305,2.0,3.0,66,0.00,,,0.00,,2013-02-03 15:11:00,
2013-02-03 10:22:00,47.0,36.0,30.07,NW,305,2.0,3.0,66,0.00,,,0.00,,2013-02-03 15:22:00,
2013-02-03 10:33:00,48.0,36.0,30.08,ESE,120,4.0,6.0,64,0.00,,,0.00,,2013-02-03 15:33:00,
2013-02-03 10:51:00,48.0,36.0,30.07,ENE,65,3.0,5.0,64,0.00,,,0.00,,2013-02-03 15:51:00,
2013-02-03 11:03:00,49.0,37.0,30.06,WNW,302,3.0,4.0,63,0.00,,,0.00,,2013-02-03 16:03:00,
2013-02-03 11:11:00,49.0,37.0,30.06,WNW,302,3.0,4.0,63,0.00,,,0.00,,2013-02-03 16:11:00,
2013-02-03 11:22:00,50.0,36.0,30.06,SW,224,1.0,2.0,59,0.00,,,0.00,,2013-02-03 16:22:00,
2013-02-03 11:33:00,49.0,37.0,30.06,ENE,66,1.0,3.0,62,0.00,,,0.00,,2013-02-03 16:33:00,
2013-02-03 11:42:00,49.0,37.0,30.06,ENE,66,1.0,3.0,62,0.00,,,0.00,,2013-02-03 16:42:00,
2013-02-03 11:52:00,52.0,38.0,30.04,SSE,148,1.0,3.0,58,0.00,,,0.00,,2013-02-03 16:52:00,
2013-02-03 12:02:00,51.0,36.0,30.03,SSE,159,4.0,8.0,57,0.00,,,0.00,,2013-02-03 17:02:00,
2013-02-03 12:11:00,51.0,36.0,30.03,SSE,159,4.0,8.0,57,0.00,,,0.00,,2013-02-03 17:11:00,
2013-02-03 12:22:00,51.0,35.0,30.03,SW,228,4.0,7.0,55,0.00,,,0.00,,2013-02-03 17:22:00,
2013-02-03 12:32:00,52.0,34.0,30.02,NE,46,4.0,7.0,51,0.00,,,0.00,,2013-02-03 17:32:00,
2013-02-03 12:42:00,52.0,34.0,30.02,NE,46,4.0,7.0,51,0.00,,,0.00,,2013-02-03 17:42:00,
2013-02-03 12:52:00,53.0,34.0,30.01,West,269,4.0,6.0,49,0.00,,,0.00,,2013-02-03 17:52:00,
2013-02-03 13:03:00,53.0,33.0,30.00,South,181,3.0,6.0,46,0.00,,,0.00,,2013-02-03 18:03:00,
2013-02-03 13:12:00,53.0,33.0,30.00,South,181,3.0,6.0,46,0.00,,,0.00,,2013-02-03 18:12:00,
2013-02-03 13:23:00,54.0,30.0,29.99,NNE,20,5.0,10.0,40,0.00,,,0.00,,2013-02-03 18:23:00,
2013-02-03 13:33:00,54.0,26.0,29.99,North,4,6.0,12.0,34,0.00,,,0.00,,2013-02-03 18:33:00,
2013-02-03 13:42:00,54.0,26.0,29.99,North,4,6.0,12.0,34,0.00,,,0.00,,2013-02-03 18:42:00,
2013-02-03 13:51:00,54.0,28.0,29.99,NNW,329,6.0,11.0,37,0.00,,,0.00,,2013-02-03 18:51:00,
2013-02-03 14:02:00,53.0,32.0,29.98,West,264,1.0,7.0,44,0.00,,,0.00,,2013-02-03 19:02:00,
2013-02-03 14:11:00,53.0,32.0,29.98,West,264,1.0,7.0,44,0.00,,,0.00,,2013-02-03 19:11:00,
2013-02-03 14:22:00,52.0,32.0,29.99,NNE,28,3.0,6.0,46,0.00,,,0.00,,2013-02-03 19:22:00,
2013-02-03 14:32:00,53.0,31.0,29.98,ESE,121,7.0,9.0,42,0.00,,,0.00,,2013-02-03 19:32:00,
2013-02-03 14:42:00,53.0,31.0,29.98,ESE,121,7.0,9.0,42,0.00,,,0.00,,2013-02-03 19:42:00,
2013-02-03 14:51:00,55.0,29.0,29.99,NW,322,1.0,2.0,36,0.00,,,0.00,,2013-02-03 19:51:00,
2013-02-03 15:01:00,54.0,28.0,30.00,SSE,155,4.0,5.0,36,0.00,,,0.00,,2013-02-03 20:01:00,
2013-02-03 15:12:00,54.0,28.0,30.00,SSE,155,4.0,5.0,36,0.00,,,0.00,,2013-02-03 20:12:00,
2013-02-03 15:21:00,53.0,26.0,30.00,SSE,159,8.0,14.0,35,0.00,,,0.00,,2013-02-03 20:21:00,
2013-02-03 15:33:00,53.0,31.0,30.01,NNW,330,7.0,11.0,43,0.00,,,0.00,,2013-02-03 20:33:00,
2013-02-03 15:42:00,53.0,31.0,30.01,NNW,330,7.0,11.0,43,0.00,,,0.00,,2013-02-03 20:42:00,
2013-02-03 15:52:00,54.0,30.0,30.03,ENE,58,2.0,5.0,40,0.00,,,0.00,,2013-02-03 20:52:00,
2013-02-03 16:03:00,52.0,29.0,30.02,NW,304,0.0,2.0,41,0.00,,,0.00,,2013-02-03 21:03:00,
2013-02-03 16:11:00,52.0,29.0,30.02,NW,304,0.0,2.0,41,0.00,,,0.00,,2013-02-03 21:11:00,
2013-02-03 16:21:00,52.0,30.0,30.03,WNW,294,4.0,7.0,43,0.00,,,0.00,,2013-02-03 21:21:00,
2013-02-03 16:32:00,51.0,29.0,30.04,WSW,250,4.0,7.0,42,0.00,,,0.00,,2013-02-03 21:32:00,
2013-02-03 16:42:00,51.0,29.0,30.04,WSW,250,4.0,7.0,42,0.00,,,0.00,,2013-02-03 21:42:00,
2013-02-03 16:51:00,49.0,28.0,30.05,NNE,23,7.0,11.0,44,0.00,,,0.00,,2013-02-03 21:51:00,
2013-02-03 17:01:00,48.0,28.0,30.06,NNE,14,8.0,15.0,46,0.00,,,0.00,,2013-02-03 22:01:00,
2013-02-03 17:11:00,48.0,28.0,30.06,NNE,14,8.0,15.0,46,0.00,,,0.00,,2013-02-03 22:11:00,
2013-02-03 17:21:00,47.0,30.0,30.06,NE,45,5.0,9.0,51,0.00,,,0.00,,2013-02-03 22:21:00,
2013-02-03 17:32:00,47.0,29.0,30.07,NNW,342,8.0,11.0,50,0.00,,,0.00,,2013-02-03 22:32:00,
2013-02-03 17:42:00,47.0,29.0,30.07,NNW,342,8.0,11.0,50,0.00,,,0.00,,2013-02-03 22:42:00,
2013-02-03 17:51:00,46.0,29.0,30.08,NNE,13,2.0,5.0,51,0.00,,,0.00,,2013-02-03 22:51:00,
2013-02-03 18:01:00,45.0,28.0,30.08,East,100,4.0,8.0,52,0.00,,,0.00,,2013-02-03 23:01:00,
2013-02-03 18:12:00,45.0,28.0,30.08,East,100,4.0,8.0,52,0.00,,,0.00,,2013-02-03 23:12:00,
2013-02-03 18:22:00,45.0,28.0,30.09,NE,52,3.0,4.0,51,0.00,,,0.00,,2013-02-03 23:22:00,
2013-02-03 18:32:00,44.0,28.0,30.09,North,8,0.0,0.0,53,0.00,,,0.00,,2013-02-03 23:32:00,
2013-02-03 18:42:00,44.0,28.0,30.09,North,8,0.0,0.0,53,0.00,,,0.00,,2013-02-03 23:42:00,
2013-02-03 18:52:00,44.0,28.0,30.09,NW,304,3.0,5.0,53,0.00,,,0.00,,2013-02-03 23:52:00,
2013-02-03 19:02:00,44.0,28.0,30.10,East,101,3.0,4.0,53,0.00,,,0.00,,2013-02-04 00:02:00,
2013-02-03 19:11:00,44.0,28.0,30.10,East,101,3.0,4.0,53,0.00,,,0.00,,2013-02-04 00:11:00,
2013-02-03 19:22:00,43.0,28.0,30.10,SSW,195,3.0,6.0,56,0.00,,,0.00,,2013-02-04 00:22:00,
2013-02-03 19:32:00,42.0,28.0,30.11,SW,232,2.0,3.0,58,0.00,,,0.00,,2013-02-04 00:32:00,
2013-02-03 19:42:00,42.0,28.0,30.11,SW,232,2.0,3.0,58,0.00,,,0.00,,2013-02-04 00:42:00,
2013-02-03 19:52:00,42.0,27.0,30.11,SE,145,5.0,8.0,56,0.00,,,0.00,,2013-02-04 00:52:00,
2013-02-03 20:01:00,42.0,28.0,30.11,West,263,1.0,2.0,57,0.00,,,0.00,,2013-02-04 01:01:00,
2013-02-03 20:11:00,42.0,28.0,30.11,West,263,1.0,2.0,57,0.00,,,0.00,,2013-02-04 01:11:00,
2013-02-03 20:21:00,41.0,28.0,30.12,WNW,284,3.0,4.0,59,0.00,,,0.00,,2013-02-04 01:21:00,
2013-02-03 20:32:00,42.0,29.0,30.13,West,273,10.0,14.0,59,0.00,,,0.00,,2013-02-04 01:32:00,
2013-02-03 20:42:00,42.0,29.0,30.13,West,273,10.0,14.0,59,0.00,,,0.00,,2013-02-04 01:42:00,
2013-02-03 20:52:00,42.0,30.0,30.13,SW,225,5.0,9.0,61,0.00,,,0.00,,2013-02-04 01:52:00,
2013-02-03 21:02:00,41.0,29.0,30.14,North,8,4.0,10.0,62,0.00,,,0.00,,2013-02-04 02:02:00,
2013-02-03 21:11:00,41.0,29.0,30.14,North,8,4.0,10.0,62,0.00,,,0.00,,2013-02-04 02:11:00,
2013-02-03 21:21:00,41.0,29.0,30.14,West,266,8.0,12.0,62,0.00,,,0.00,,2013-02-04 02:21:00,
2013-02-03 21:32:00,40.0,28.0,30.14,SW,235,1.0,2.0,62,0.00,,,0.00,,2013-02-04 02:32:00,
2013-02-03 21:42:00,40.0,28.0,30.14,SW,235,1.0,2.0,62,0.00,,,0.00,,2013-02-04 02:42:00,
2013-02-03 21:52:00,40.0,28.0,30.15,South,187,0.0,4.0,63,0.00,,,0.00,,2013-02-04 02:52:00,
2013-02-03 22:02:00,40.0,28.0,30.15,SW,224,2.0,5.0,61,0.00,,,0.00,,2013-02-04 03:02:00,
2013-02-03 22:11:00,39.0,27.0,30.14,South,183,3.0,4.0,62,0.00,,,0.00,,2013-02-04 03:11:00,
2013-02-03 22:21:00,39.0,27.0,30.14,South,183,3.0,4.0,62,0.00,,,0.00,,2013-02-04 03:21:00,
2013-02-03 22:32:00,39.0,27.0,30.15,ENE,68,0.0,1.0,62,0.00,,,0.00,,2013-02-04 03:32:00,
2013-02-03 22:42:00,39.0,27.0,30.15,ENE,68,0.0,1.0,62,0.00,,,0.00,,2013-02-04 03:42:00,
2013-02-03 22:51:00,38.0,27.0,30.15,NW,311,2.0,4.0,64,0.00,,,0.00,,2013-02-04 03:51:00,
2013-02-03 23:01:00,38.0,27.0,30.15,NE,53,10.0,14.0,64,0.00,,,0.00,,2013-02-04 04:01:00,
2013-02-03 23:11:00,38.0,27.0,30.15,NE,53,10.0,14.0,64,0.00,,,0.00,,2013-02-04 04:11:00,
2013-02-03 23:21:00,37.0,27.0,30.15,North,353,7.0,9.0,66,0.00,,,0.00,,2013-02-04 04:21:00,
2013-02-03 23:32:00,37.0,26.0,30.15,NNE,15,7.0,10.0,65,0.00,,,0.00,,2013-02-04 04:32:00,
2013-02-03 23:42:00,37.0,26.0,30.15,NNE,15,7.0,10.0,65,0.00,,,0.00,,2013-02-04 04:42:00,
2013-02-03 23:52:00,36.0,26.0,30.15,WSW,250,4.0,11.0,66,0.00,,,0.00,,2013-02-04 04:52:00,